Mead, OK

5:57 PM CST on February 12, 2016 (GMT -0600)
Eaker

Weather History for KDUA - February, 2014

Change the Weather History Date:

Wednesday, February 5, 2014

  Actual Average (KADM) Record (KADM)
Temperature  
Mean Temperature 27 °F -  
Max Temperature 33 °F 52 °F 69 °F (1999)
Min Temperature 21 °F 34 °F 1 °F (2011)
Degree Days  
Heating Degree Days 38    
Moisture  
Dew Point 19 °F    
Average Humidity 71    
Maximum Humidity 87    
Minimum Humidity 59    
Precipitation  
Precipitation 0.00 in - - ()
Sea Level Pressure  
Sea Level Pressure 30.44 in    
Wind  
Wind Speed 16 mph (NNW)    
Max Wind Speed 22 mph    
Max Gust Speed 30 mph    
Visibility 10 miles    
Events      
Averages and records for this station are not official NWS values.
T = Trace of Precipitation, MM = Missing Value Source: NWS Daily Summary

Daily Weather History Graph

Daily Weather History Graph

Search for Another Location

Airport or City:

Trip Planner

Search our weather history database for the weather conditions in past years. The results will help you decide how hot, cold, wet, or windy it might be!

Date:

Astronomy

Feb. 05, 2014 Rise Set
Actual Time 7:19 AM CST 6:00 PM CST
Civil Twilight 6:53 AM CST 6:26 PM CST
Nautical Twilight 6:23 AM CST 6:55 PM CST
Astronomical Twilight 5:54 AM CST 7:25 PM CST
Moon 10:54 AM CST (2/5) No Moon Set
Length of Visible Light 11h 32m
Length of Day
10h 40m
Waxing Crescent, 39% of the Moon is Illuminated
Feb 5
Waxing Crescent
Feb 6
First Quarter
Feb 14
Full
Feb 22
Last Quarter
Mar 1
New

Hourly Weather History & Observations

Time (CST) Temp. Windchill Dew Point Humidity Pressure Visibility Wind Dir Wind Speed Gust Speed Precip Events Conditions
12:15 AM 33.8 °F 25.8 °F 30.2 °F 87% 30.14 in 10.0 mi NW 10.4 mph 18.4 mph N/A   Mostly Cloudy
12:35 AM 33.8 °F 24.3 °F 30.2 °F 87% 30.15 in 10.0 mi NNW 13.8 mph 17.3 mph N/A   Overcast
12:55 AM 33.8 °F 22.8 °F 28.4 °F 81% 30.16 in 10.0 mi NNW 18.4 mph 27.6 mph N/A   Overcast
1:15 AM 33.8 °F 23.5 °F 28.4 °F 81% 30.17 in 10.0 mi NNW 16.1 mph 25.3 mph N/A   Overcast
1:35 AM 33.8 °F 22.8 °F 28.4 °F 81% 30.17 in 10.0 mi NNW 18.4 mph 26.5 mph N/A   Overcast
1:55 AM 33.8 °F 24.3 °F 28.4 °F 81% 30.19 in 10.0 mi NNW 13.8 mph 19.6 mph N/A   Overcast
2:15 AM 33.8 °F 23.2 °F 28.4 °F 81% 30.20 in 10.0 mi NNW 17.3 mph 23.0 mph N/A   Overcast
2:35 AM 33.8 °F 24.8 °F 26.6 °F 75% 30.22 in 10.0 mi NNW 12.7 mph 19.6 mph N/A   Overcast
2:55 AM 32.0 °F 21.6 °F 26.6 °F 80% 30.23 in 10.0 mi NNW 15.0 mph 26.5 mph N/A   Mostly Cloudy
3:15 AM 32.0 °F 21.6 °F 26.6 °F 80% 30.24 in 10.0 mi NNW 15.0 mph 23.0 mph N/A   Mostly Cloudy
3:35 AM 32.0 °F 22.1 °F 26.6 °F 80% 30.26 in 10.0 mi NNW 13.8 mph - N/A   Overcast
3:55 AM 32.0 °F 23.0 °F 26.6 °F 80% 30.28 in 10.0 mi NNW 11.5 mph 21.9 mph N/A   Overcast
4:15 AM 32.0 °F 19.8 °F 23.0 °F 69% 30.29 in 10.0 mi NNW 20.7 mph 27.6 mph N/A   Mostly Cloudy
4:35 AM 28.4 °F 15.4 °F 21.2 °F 74% 30.31 in 10.0 mi NNW 19.6 mph 26.5 mph N/A   Scattered Clouds
4:55 AM 28.4 °F 15.8 °F 21.2 °F 74% 30.33 in 10.0 mi NNW 18.4 mph 26.5 mph N/A   Mostly Cloudy
5:15 AM 28.4 °F 17.0 °F 21.2 °F 74% 30.35 in 10.0 mi NNW 15.0 mph 20.7 mph N/A   Overcast
5:35 AM 28.4 °F 16.6 °F 21.2 °F 74% 30.37 in 10.0 mi NNW 16.1 mph 23.0 mph N/A   Overcast
5:55 AM 28.4 °F 16.2 °F 21.2 °F 74% 30.37 in 10.0 mi North 17.3 mph 23.0 mph N/A   Overcast
6:15 AM 28.4 °F 17.0 °F 21.2 °F 74% 30.38 in 10.0 mi NNW 15.0 mph 20.7 mph N/A   Overcast
6:35 AM 28.4 °F 17.0 °F 21.2 °F 74% 30.39 in 10.0 mi NNW 15.0 mph 23.0 mph N/A   Overcast
6:55 AM 28.4 °F 15.4 °F 21.2 °F 74% 30.38 in 10.0 mi NNW 19.6 mph 25.3 mph N/A   Overcast
7:15 AM 26.6 °F 13.1 °F 19.4 °F 74% 30.41 in 10.0 mi NNW 19.6 mph 29.9 mph N/A   Overcast
7:35 AM 26.6 °F 12.4 °F 19.4 °F 74% 30.42 in 10.0 mi NNW 21.9 mph 28.8 mph N/A   Overcast
7:55 AM 26.6 °F 14.7 °F 19.4 °F 74% 30.44 in 10.0 mi NNW 15.0 mph 25.3 mph N/A   Overcast
8:15 AM 26.6 °F 13.4 °F 19.4 °F 74% 30.45 in 10.0 mi NNW 18.4 mph 23.0 mph N/A   Overcast
8:35 AM 26.6 °F 13.8 °F 17.6 °F 69% 30.47 in 10.0 mi NNW 17.3 mph 26.5 mph N/A   Overcast
8:55 AM 24.8 °F 11.9 °F 17.6 °F 74% 30.48 in 10.0 mi NNW 16.1 mph 23.0 mph N/A   Mostly Cloudy
9:15 AM 24.8 °F 10.7 °F 17.6 °F 74% 30.49 in 10.0 mi NNW 19.6 mph 24.2 mph N/A   Mostly Cloudy
9:35 AM 24.8 °F 11.5 °F 17.6 °F 74% 30.50 in 10.0 mi NNW 17.3 mph 20.7 mph N/A   Mostly Cloudy
9:55 AM 24.8 °F 12.4 °F 17.6 °F 74% 30.50 in 10.0 mi NNW 15.0 mph 23.0 mph N/A   Scattered Clouds
10:15 AM 26.6 °F 12.7 °F 17.6 °F 69% 30.51 in 10.0 mi NW 20.7 mph 24.2 mph N/A   Scattered Clouds
10:35 AM 24.8 °F 10.0 °F 15.8 °F 69% 30.52 in 10.0 mi NW 21.9 mph 25.3 mph N/A   Scattered Clouds
10:55 AM 24.8 °F 10.0 °F 15.8 °F 69% 30.53 in 10.0 mi NW 21.9 mph 26.5 mph N/A   Clear
11:15 AM 26.6 °F 13.1 °F 15.8 °F 64% 30.53 in 10.0 mi North 19.6 mph 23.0 mph N/A   Clear
11:35 AM 26.6 °F 14.7 °F 15.8 °F 64% 30.53 in 10.0 mi North 15.0 mph 23.0 mph N/A   Clear
11:55 AM 28.4 °F 15.4 °F 15.8 °F 59% 30.53 in 10.0 mi NNW 19.6 mph 25.3 mph N/A   Clear
12:15 PM 26.6 °F 14.3 °F 17.6 °F 69% 30.53 in 10.0 mi North 16.1 mph - N/A   Clear
12:35 PM 28.4 °F 17.5 °F 17.6 °F 64% 30.53 in 10.0 mi NNW 13.8 mph 20.7 mph N/A   Scattered Clouds
12:55 PM 28.4 °F 17.0 °F 17.6 °F 64% 30.52 in 10.0 mi NNW 15.0 mph 19.6 mph N/A   Scattered Clouds
1:15 PM 28.4 °F 17.0 °F 17.6 °F 64% 30.52 in 10.0 mi NW 15.0 mph 18.4 mph N/A   Scattered Clouds
1:35 PM 30.2 °F 20.8 °F 17.6 °F 60% 30.52 in 10.0 mi NNW 11.5 mph - N/A   Clear
1:55 PM 30.2 °F 19.3 °F 17.6 °F 60% 30.51 in 10.0 mi NNW 15.0 mph 19.6 mph N/A   Clear
2:15 PM 30.2 °F 18.9 °F 17.6 °F 60% 30.52 in 10.0 mi NNW 16.1 mph 19.6 mph N/A   Scattered Clouds
2:35 PM 30.2 °F 20.2 °F 17.6 °F 60% 30.51 in 10.0 mi NW 12.7 mph - N/A   Scattered Clouds
2:55 PM 30.2 °F 19.8 °F 17.6 °F 60% 30.51 in 10.0 mi NNW 13.8 mph - N/A   Scattered Clouds
3:15 PM 28.4 °F 18.5 °F 17.6 °F 64% 30.51 in 10.0 mi NNW 11.5 mph 16.1 mph N/A   Scattered Clouds
3:35 PM 30.2 °F 19.8 °F 17.6 °F 60% 30.51 in 10.0 mi North 13.8 mph 20.7 mph N/A   Clear
3:55 PM 28.4 °F 16.6 °F 17.6 °F 64% 30.51 in 10.0 mi NNW 16.1 mph 19.6 mph N/A   Clear
4:15 PM 28.4 °F 17.0 °F 17.6 °F 64% 30.50 in 10.0 mi NNW 15.0 mph 21.9 mph N/A   Clear
4:35 PM 28.4 °F 16.2 °F 17.6 °F 64% 30.50 in 10.0 mi NNW 17.3 mph 26.5 mph N/A   Clear
4:55 PM 26.6 °F 14.7 °F 17.6 °F 69% 30.50 in 10.0 mi NNW 15.0 mph 21.9 mph N/A   Clear
5:15 PM 26.6 °F 13.8 °F 17.6 °F 69% 30.50 in 10.0 mi NNW 17.3 mph 23.0 mph N/A   Clear
5:35 PM 26.6 °F 14.3 °F 17.6 °F 69% 30.50 in 10.0 mi WNW 16.1 mph 21.9 mph N/A   Clear
5:55 PM 26.6 °F 16.8 °F 17.6 °F 69% 30.50 in 10.0 mi NNW 10.4 mph 17.3 mph N/A   Clear
6:15 PM 24.8 °F 14.0 °F 17.6 °F 74% 30.52 in 10.0 mi NW 11.5 mph - N/A   Clear
6:35 PM 24.8 °F 11.5 °F 17.6 °F 74% 30.52 in 10.0 mi North 17.3 mph - N/A   Clear
6:55 PM 24.8 °F 11.9 °F 15.8 °F 69% 30.52 in 10.0 mi North 16.1 mph 24.2 mph N/A   Clear
7:15 PM 24.8 °F 11.5 °F 15.8 °F 69% 30.53 in 10.0 mi North 17.3 mph 23.0 mph N/A   Clear
7:35 PM 23.0 °F 9.6 °F 15.8 °F 74% 30.53 in 10.0 mi North 16.1 mph 21.9 mph N/A   Clear
7:55 PM 23.0 °F 10.1 °F 14.0 °F 68% 30.53 in 10.0 mi North 15.0 mph 21.9 mph N/A   Clear
8:15 PM 23.0 °F 9.2 °F 14.0 °F 68% 30.54 in 10.0 mi North 17.3 mph - N/A   Clear
8:35 PM 23.0 °F 8.7 °F 14.0 °F 68% 30.55 in 10.0 mi NNW 18.4 mph 21.9 mph N/A   Clear
8:55 PM 23.0 °F 9.6 °F 14.0 °F 68% 30.55 in 10.0 mi North 16.1 mph 21.9 mph N/A   Clear
9:15 PM 23.0 °F 8.7 °F 14.0 °F 68% 30.54 in 10.0 mi North 18.4 mph - N/A   Clear
9:35 PM 23.0 °F 9.2 °F 12.2 °F 63% 30.54 in 10.0 mi North 17.3 mph 23.0 mph N/A   Clear
9:55 PM 23.0 °F 9.6 °F 12.2 °F 63% 30.54 in 10.0 mi North 16.1 mph 23.0 mph N/A   Clear
10:35 PM 21.2 °F 8.3 °F 12.2 °F 68% 30.55 in 10.0 mi North 13.8 mph - N/A   Clear
10:55 PM 21.2 °F 8.3 °F 12.2 °F 68% 30.55 in 10.0 mi NNW 13.8 mph 19.6 mph N/A   Clear
11:15 PM 21.2 °F 6.0 °F 12.2 °F 68% 30.54 in 10.0 mi NNE 19.6 mph 24.2 mph N/A   Clear
11:35 PM 21.2 °F 8.3 °F 12.2 °F 68% 30.54 in 10.0 mi NNW 13.8 mph - N/A   Clear
11:55 PM 21.2 °F 8.3 °F 12.2 °F 68% 30.54 in 10.0 mi NNW 13.8 mph 18.4 mph N/A   Clear